TimeAKST,TemperatureF,Dew PointF,Humidity,Sea Level PressureIn,VisibilityMPH,Wind Direction,Wind SpeedMPH,Gust SpeedMPH,PrecipitationIn,Events,Conditions,WindDirDegrees,DateUTC
12:53 AM,9.0,5.0,84,30.15,10.0,Calm,Calm,-,N/A,,Overcast,0,2013-01-21 09:53:00
1:53 AM,9.0,6.1,88,30.14,10.0,Calm,Calm,-,N/A,,Overcast,0,2013-01-21 10:53:00
3:53 AM,10.0,6.1,84,30.15,10.0,Calm,Calm,-,N/A,,Overcast,0,2013-01-21 12:53:00
4:53 AM,10.0,6.1,84,30.14,10.0,Calm,Calm,-,N/A,,Overcast,0,2013-01-21 13:53:00
5:14 AM,10.0,7.0,87,29.98,10.0,Calm,Calm,-,N/A,,Overcast,0,2013-01-21 14:14:00
5:53 AM,9.0,6.1,88,30.14,7.0,Calm,Calm,-,0.00,Snow,Light Snow,0,2013-01-21 14:53:00
6:53 AM,9.0,7.0,92,30.14,7.0,Calm,Calm,-,0.00,Snow,Light Snow,0,2013-01-21 15:53:00
7:53 AM,10.0,8.1,92,30.13,9.0,Calm,Calm,-,0.00,Snow,Light Snow,0,2013-01-21 16:53:00
8:53 AM,10.4,8.6,92,30.13,7.0,Calm,Calm,-,N/A,Snow,Light Snow,0,2013-01-21 17:53:00
9:53 AM,10.0,7.0,87,30.13,7.0,Calm,Calm,-,0.00,Snow,Light Snow,0,2013-01-21 18:53:00
10:53 AM,9.0,7.0,92,30.13,7.0,Calm,Calm,-,0.00,Snow,Light Snow,0,2013-01-21 19:53:00
11:08 AM,10.0,7.0,87,29.97,2.0,Calm,Calm,-,0.00,Snow,Light Snow,0,2013-01-21 20:08:00
11:20 AM,10.0,8.1,92,29.98,0.5,Calm,Calm,-,0.00,Fog-Snow,Snow,0,2013-01-21 20:20:00
11:50 AM,10.4,8.6,92,29.97,2.0,Calm,Calm,-,0.00,Snow,Light Snow,0,2013-01-21 20:50:00
11:53 AM,10.0,9.0,95,30.13,2.0,Calm,Calm,-,0.00,Snow,Light Snow,0,2013-01-21 20:53:00
12:21 PM,10.0,8.1,92,29.98,5.0,Calm,Calm,-,0.00,Snow,Light Snow,0,2013-01-21 21:21:00
12:53 PM,10.9,8.1,88,30.12,5.0,Calm,Calm,-,0.00,Snow,Light Snow,0,2013-01-21 21:53:00
1:53 PM,10.9,9.0,92,30.11,5.0,Calm,Calm,-,0.00,Snow,Light Snow,0,2013-01-21 22:53:00
2:27 PM,10.9,9.0,92,29.95,3.0,Calm,Calm,-,0.00,Snow,Light Snow,0,2013-01-21 23:27:00
2:53 PM,10.9,8.1,88,30.09,5.0,North,3.5,-,0.00,Snow,Light Snow,10,2013-01-21 23:53:00
3:53 PM,10.9,8.1,88,30.09,7.0,Calm,Calm,-,0.00,Snow,Light Snow,0,2013-01-22 00:53:00
4:53 PM,10.9,8.1,88,30.07,10.0,Calm,Calm,-,0.00,,Overcast,0,2013-01-22 01:53:00
5:53 PM,10.9,8.1,88,30.06,10.0,Calm,Calm,-,N/A,,Overcast,0,2013-01-22 02:53:00
6:53 PM,10.9,8.1,88,30.05,10.0,Calm,Calm,-,N/A,,Overcast,0,2013-01-22 03:53:00
7:53 PM,10.9,8.1,88,30.04,10.0,Calm,Calm,-,N/A,,Overcast,0,2013-01-22 04:53:00
8:53 PM,10.9,8.1,88,30.03,10.0,Calm,Calm,-,N/A,,Overcast,0,2013-01-22 05:53:00
9:26 PM,10.9,7.0,84,29.88,10.0,Calm,Calm,-,N/A,,Overcast,0,2013-01-22 06:26:00
9:53 PM,10.0,7.0,87,30.03,10.0,NNW,3.5,-,N/A,,Overcast,340,2013-01-22 06:53:00
10:19 PM,10.0,7.0,87,29.87,10.0,Calm,Calm,-,N/A,,Overcast,0,2013-01-22 07:19:00
10:46 PM,8.1,5.0,87,29.87,10.0,North,5.8,-,N/A,,Mostly Cloudy,350,2013-01-22 07:46:00
10:53 PM,8.1,3.9,83,30.02,10.0,North,5.8,-,N/A,,Scattered Clouds,350,2013-01-22 07:53:00
11:39 PM,7.0,3.0,84,29.86,10.0,Calm,Calm,-,N/A,,Mostly Cloudy,0,2013-01-22 08:39:00
11:53 PM,6.1,3.0,87,30.01,10.0,North,5.8,-,N/A,,Overcast,360,2013-01-22 08:53:00